Weather History for Ardmore Downtown, OK

Change the Weather History Date:

Wednesday, September 12, 2012

  Actual Average (KADM) Record (KADM)
Temperature  
Mean Temperature 78 °F -  
Max Temperature 89 °F 85 °F 100 °F (2011)
Min Temperature 66 °F 64 °F 51 °F (2007)
Cooling Degree Days 12    
Growing Degree Days 28 (Base 50)    
Moisture  
Dew Point 56 °F    
Average Humidity 50    
Maximum Humidity 73    
Minimum Humidity 27    
Precipitation  
Precipitation 0.00 in - - ()
Sea Level Pressure  
Sea Level Pressure 30.02 in    
Wind  
Wind Speed 7 mph (SSE)    
Max Wind Speed 16 mph    
Max Gust Speed 23 mph    
Visibility 10 miles    
Events      
Averages and records for this station are not official NWS values.
T = Trace of Precipitation, MM = Missing Value Source: NWS Daily Summary

Daily Weather History Graph

Daily Weather History Graph

Search for Another Location

Airport:

Trip Planner

Search our weather history database for the weather conditions in past years. The results will help you decide how hot, cold, wet, or windy it might be!

Date:

Astronomy

Sep. 12, 2012 Rise Set
Actual Time 7:09 AM CDT 7:38 PM CDT
Civil Twilight 6:44 AM CDT 8:03 PM CDT
Nautical Twilight 6:15 AM CDT 8:33 PM CDT
Astronomical Twilight 5:45 AM CDT 9:03 PM CDT
Moon 3:36 AM CDT (9/12) 5:20 PM CDT (9/12)
Length of Visible Light 13h 18m
Length of Day
12h 28m
Waning Crescent, 13% of the Moon is Illuminated
Sep 12
Waning Crescent
Sep 15
New
Sep 22
First Quarter
Sep 29
Full
Oct 8
Last Quarter

Hourly Weather History & Observations

Time (CDT) Temp. Heat Index Dew Point Humidity Pressure Visibility Wind Dir Wind Speed Gust Speed Precip Events Conditions
12:15 AM 73.4 °F - 51.8 °F 47% 30.02 in 10.0 mi SSE 5.8 mph - N/A   Clear
12:35 AM 73.4 °F - 53.6 °F 50% 30.03 in 10.0 mi SSE 8.1 mph - N/A   Clear
12:55 AM 73.4 °F - 51.8 °F 47% 30.02 in 10.0 mi SSE 5.8 mph - N/A   Clear
1:15 AM 73.4 °F - 51.8 °F 47% 30.02 in 10.0 mi SSE 5.8 mph - N/A   Clear
1:35 AM 71.6 °F - 51.8 °F 50% 30.02 in 10.0 mi South 5.8 mph - N/A   Clear
1:55 AM 71.6 °F - 53.6 °F 53% 30.02 in 10.0 mi SSE 4.6 mph - N/A   Clear
2:15 AM 71.6 °F - 53.6 °F 53% 30.01 in 10.0 mi SSE 4.6 mph - N/A   Clear
2:35 AM 71.6 °F - 53.6 °F 53% 30.01 in 10.0 mi SSE 5.8 mph - N/A   Clear
2:55 AM 71.6 °F - 53.6 °F 53% 30.01 in 10.0 mi SSE 6.9 mph - N/A   Clear
3:15 AM 71.6 °F - 53.6 °F 53% 30.01 in 10.0 mi SSE 6.9 mph - N/A   Clear
3:35 AM 71.6 °F - 53.6 °F 53% 30.01 in 10.0 mi South 5.8 mph - N/A   Clear
3:55 AM 69.8 °F - 55.4 °F 60% 30.00 in 10.0 mi South 6.9 mph - N/A   Clear
4:15 AM 69.8 °F - 55.4 °F 60% 30.00 in 10.0 mi South 4.6 mph - N/A   Clear
4:35 AM 69.8 °F - 55.4 °F 60% 30.00 in 10.0 mi South 5.8 mph - N/A   Clear
4:55 AM 69.8 °F - 55.4 °F 60% 30.01 in 10.0 mi South 6.9 mph - N/A   Clear
5:15 AM 69.8 °F - 57.2 °F 64% 30.01 in 10.0 mi South 5.8 mph - N/A   Clear
5:35 AM 69.8 °F - 55.4 °F 60% 30.02 in 10.0 mi South 4.6 mph - N/A   Clear
5:55 AM 68.0 °F - 57.2 °F 68% 30.02 in 10.0 mi South 3.5 mph - N/A   Clear
6:15 AM 68.0 °F - 57.2 °F 68% 30.03 in 10.0 mi SSE 4.6 mph - N/A   Clear
6:35 AM 68.0 °F - 57.2 °F 68% 30.04 in 10.0 mi SE 3.5 mph - N/A   Clear
6:55 AM 66.2 °F - 57.2 °F 73% 30.04 in 10.0 mi SSE 4.6 mph - N/A   Clear
7:15 AM 66.2 °F - 57.2 °F 73% 30.05 in 10.0 mi SSE 5.8 mph - N/A   Clear
7:35 AM 68.0 °F - 57.2 °F 68% 30.06 in 10.0 mi SE 5.8 mph - N/A   Clear
7:55 AM 68.0 °F - 59.0 °F 73% 30.06 in 10.0 mi SSE 5.8 mph - N/A   Clear
8:15 AM 69.8 °F - 59.0 °F 68% 30.07 in 10.0 mi SSE 5.8 mph - N/A   Clear
8:35 AM 71.6 °F - 60.8 °F 69% 30.07 in 10.0 mi South 10.4 mph - N/A   Clear
8:55 AM 71.6 °F - 60.8 °F 69% 30.07 in 10.0 mi South 10.4 mph - N/A   Clear
9:15 AM 73.4 °F - 60.8 °F 65% 30.07 in 10.0 mi SSE 10.4 mph - N/A   Clear
9:35 AM 75.2 °F - 62.6 °F 65% 30.08 in 10.0 mi South 11.5 mph 17.3 mph N/A   Clear
9:55 AM 77.0 °F - 62.6 °F 61% 30.08 in 10.0 mi South 11.5 mph 16.1 mph N/A   Clear
10:15 AM 78.8 °F - 64.4 °F 61% 30.08 in 10.0 mi South 12.7 mph 16.1 mph N/A   Clear
10:35 AM 78.8 °F - 64.4 °F 61% 30.08 in 10.0 mi South 13.8 mph 19.6 mph N/A   Clear
10:55 AM 80.6 °F 82.3 °F 64.4 °F 58% 30.08 in 10.0 mi SSE 12.7 mph - N/A   Clear
11:15 AM 80.6 °F 82.3 °F 64.4 °F 58% 30.08 in 10.0 mi SSE 13.8 mph 17.3 mph N/A   Clear
11:55 AM 82.4 °F 83.9 °F 64.4 °F 54% 30.07 in 10.0 mi SSE 16.1 mph - N/A   Mostly Cloudy
12:15 PM 84.2 °F 85.0 °F 62.6 °F 48% 30.06 in 10.0 mi SSE 10.4 mph 17.3 mph N/A   Mostly Cloudy
12:35 PM 84.2 °F 85.0 °F 62.6 °F 48% 30.06 in 10.0 mi South 12.7 mph - N/A   Mostly Cloudy
12:55 PM 86.0 °F 86.6 °F 62.6 °F 45% 30.05 in 10.0 mi South 11.5 mph 17.3 mph N/A   Scattered Clouds
1:15 PM 86.0 °F 86.1 °F 60.8 °F 43% 30.04 in 10.0 mi South 10.4 mph 17.3 mph N/A   Clear
1:35 PM 86.0 °F 86.1 °F 60.8 °F 43% 30.04 in 10.0 mi SE 10.4 mph 19.6 mph N/A   Clear
1:55 PM 87.8 °F 87.1 °F 59.0 °F 38% 30.03 in 10.0 mi South 10.4 mph 23.0 mph N/A   Clear
2:15 PM 87.8 °F 86.5 °F 57.2 °F 35% 30.02 in 10.0 mi SSE 12.7 mph 18.4 mph N/A   Clear
2:35 PM 87.8 °F 86.1 °F 55.4 °F 33% 30.01 in 10.0 mi SSE 12.7 mph - N/A   Clear
2:55 PM 89.6 °F 87.7 °F 55.4 °F 31% 30.00 in 10.0 mi South 11.5 mph 18.4 mph N/A   Clear
3:15 PM 89.6 °F 87.3 °F 53.6 °F 29% 29.99 in 10.0 mi SSE 10.4 mph - N/A   Clear
3:35 PM 89.6 °F 87.3 °F 53.6 °F 29% 29.99 in 10.0 mi South 9.2 mph 16.1 mph N/A   Clear
3:55 PM 89.6 °F 87.3 °F 53.6 °F 29% 29.98 in 10.0 mi South 10.4 mph - N/A   Clear
4:15 PM 89.6 °F - 51.8 °F 27% 29.98 in 10.0 mi SSE 8.1 mph - N/A   Clear
4:35 PM 89.6 °F 87.3 °F 53.6 °F 29% 29.97 in 10.0 mi SSE 6.9 mph 19.6 mph N/A   Clear
4:55 PM 89.6 °F 87.3 °F 53.6 °F 29% 29.97 in 10.0 mi South 10.4 mph 17.3 mph N/A   Clear
5:15 PM 89.6 °F 87.3 °F 53.6 °F 29% 29.97 in 10.0 mi SSE 11.5 mph - N/A   Clear
5:55 PM 89.6 °F - 51.8 °F 27% 29.97 in 10.0 mi South 10.4 mph 16.1 mph N/A   Clear
6:15 PM 87.8 °F - 51.8 °F 29% 29.97 in 10.0 mi SE 10.4 mph - N/A   Clear
6:35 PM 87.8 °F - 51.8 °F 29% 29.97 in 10.0 mi South 6.9 mph - N/A   Clear
7:15 PM 86.0 °F - 50.0 °F 29% 29.97 in 10.0 mi South 5.8 mph - N/A   Clear
7:35 PM 84.2 °F - 50.0 °F 30% 29.97 in 10.0 mi South 3.5 mph - N/A   Clear
7:55 PM 82.4 °F - 50.0 °F 32% 29.98 in 10.0 mi Calm Calm - N/A   Clear
8:15 PM 78.8 °F - 51.8 °F 39% 29.99 in 10.0 mi Calm Calm - N/A   Clear
8:55 PM 75.2 °F - 53.6 °F 47% 30.00 in 10.0 mi Calm Calm - N/A   Clear
9:15 PM 73.4 °F - 55.4 °F 53% 30.01 in 10.0 mi Calm Calm - N/A   Clear
9:35 PM 73.4 °F - 55.4 °F 53% 30.02 in 10.0 mi Calm Calm - N/A   Clear
9:55 PM 71.6 °F - 55.4 °F 57% 30.02 in 10.0 mi Calm Calm - N/A   Clear
10:15 PM 71.6 °F - 55.4 °F 57% 30.02 in 10.0 mi Calm Calm - N/A   Clear
10:35 PM 71.6 °F - 55.4 °F 57% 30.02 in 10.0 mi Calm Calm - N/A   Clear
10:55 PM 71.6 °F - 55.4 °F 57% 30.02 in 10.0 mi Calm Calm - N/A   Clear
11:15 PM 73.4 °F - 55.4 °F 53% 30.03 in 10.0 mi Calm Calm - N/A   Clear
11:35 PM 71.6 °F - 55.4 °F 57% 30.03 in 10.0 mi Calm Calm - N/A   Clear
11:55 PM 71.6 °F - 53.6 °F 53% 30.03 in 10.0 mi Calm Calm - N/A   Clear